Terug naar catalogus

STARLINK-11302

ActiefCommunicatieVLEO
NORAD 61204·PAYLOAD·🇺🇸 United States

Gelanceerd Sep 20, 2024 vanaf Vandenberg Space Force Base

Loading…

Volgende Passages (komende 24 uur)

TLE

VersSource: CelesTrak SupGP

Epoch: Sep 15, 2026, 03:32 UTC

1 61204C 24171E   26258.14770833  .00048205  00000+0  39704-3 0  2586
2 61204  53.1566 322.2634 0001200  84.2074 353.1220 15.69687562    13

Volg STARLINK-11302 in realtime met AllMySat

Download on the App Store